Regional Weather Roundup
Issued by NWS New Orleans/Baton Rouge, LA

Home | Current Version | Previous Version | Text Only | Print | Product List | Glossary On
Versions: 1 2 3 4 5 6 7 8 9 10 11 12 13 14 15 16 17 18 19 20 21 22 23 24 25 26 27 28 29 30 31 32 33 34 35 36 37 38 39 40 41 42 43 44 45 46 47 48 49 50
000
ASUS44 KLIX 271210
RWRLIX
NEW ORLEANS REGIONAL WEATHER ROUNDUP
NATIONAL WEATHER SERVICE NEW ORLEANS LA
700 AM CDT WED AUG 27 2014

NOTE: "FAIR" INDICATES FEW OR NO CLOUDS BELOW 12,000 FEET WITH NO
      SIGNIFICANT WEATHER AND/OR OBSTRUCTIONS TO VISIBILITY.
      SKY/WX - SKY CONDITION AND SIGNIFICANT WEATHER.
      TMP - AIR TEMPERATURE.     DP    - DEWPOINT TEMPERATURE.
      RH  - RELATIVE HUMIDITY.   PRES  - PRESSURE.
      HI  - HEAT INDEX.          WCI   - WIND CHILL INDEX.

*  THESE STATIONS ARE NOT NWS OR FAA STATIONS AND ARE NOT UNDER
   NWS QUALITY CONTROL.

LAZ038-040-048-061>063-065>067-069-271300-
SOUTHEAST LOUISIANA

CITY           SKY/WX    TMP DP  RH WIND       PRES   REMARKS
N.O. AUDUBON     N/A     82  75  80 MISG        N/A
6HR MIN TEMP:  78; 6HR MAX TEMP:  82;

N.O. INTL ARPT PTCLDY    82  75  79 E8        29.98R
6HR MIN TEMP:  80; 6HR MAX TEMP:  82;

N.O. LAKEFRONT PTCLDY    81  75  82 NE13      29.99R
6HR MIN TEMP:  81; 6HR MAX TEMP:  83;

N.O. DOWNTOWN*   N/A     81  72  74 NE6       29.99R
6HR MIN TEMP:  81; 6HR MAX TEMP:  82;

SLIDELL        CLEAR     74  71  91 N5        29.99R
6HR MIN TEMP:  73; 6HR MAX TEMP:  75;

BATON ROUGE    PTCLDY    72  69  90 NE5       30.00R
6HR MIN TEMP:  72; 6HR MAX TEMP:  75;

BOOTHVILLE     CLEAR     82  77  84 E3        29.97R
6HR MIN TEMP:  81; 6HR MAX TEMP:  82;

BELLE CHASSE   MOCLDY    79  75  87 NE5       29.98R
6HR MIN TEMP:  75; 6HR MAX TEMP:  79;

BOGALUSA*        N/A     71  67  85 CALM      30.03R
6HR MIN TEMP:  70; 6HR MAX TEMP:  73;

GALLIANO*      NOT AVBL
NEW ROADS*     PTSUNNY   72  70  93 CALM      30.01R
6HR MIN TEMP:  72; 6HR MAX TEMP:  74;

GONZALES*        N/A     74  74 100 CALM      29.99R
6HR MIN TEMP:  74; 6HR MAX TEMP:  75;

HAMMOND*       CLEAR     73  70  88 N6        30.02R
HOUMA*         PTCLDY    75  73  94 NE5       29.98R FOG
PORT FOURCHON* PTSUNNY   84  73  70 E7        29.98R

$$

MSZ070-080>082-271300-
SOUTHERN MISSISSIPPI

CITY           SKY/WX    TMP DP  RH WIND       PRES   REMARKS
MCCOMB         CLEAR     71  65  81 N5        30.03R
6HR MIN TEMP:  71; 6HR MAX TEMP:  74;

GULFPORT       CLEAR     76  71  85 NE3       29.99R
6HR MIN TEMP:  75; 6HR MAX TEMP:  78;

BILOXI         CLEAR     76  71  85 NE8       30.00R
6HR MIN TEMP:  75; 6HR MAX TEMP:  79;

PASCAGOULA     CLEAR     72  70  93 CALM      30.00R
6HR MIN TEMP:  70; 6HR MAX TEMP:  74;

STENNIS ARPT*  CLEAR    N/A N/A N/A CALM      30.00

$$

COASTAL OBSERVATIONS
LAKE AND NEARSHORE STATIONS

STATION/POSITION TIME  TEMP    WIND        PRES    WAVE
                       AIR SEA DIR/SP/G            HT/PER
                 (UTC) (F)     (DEG/KT/KT) (MB)    (FT/S)
PASCAGOULA       1200   78      50/  6/  8 1015.1
WAVELAND YACHT   1200   78      50/  9/ 10 1015.1
GRAND ISLE       1200   83 84   90/  6/  9 1015.3
SOUTHWEST PASS   1200   85 87  110/ 14/ 18 1014.7
NEW CANAL        1200   82 84   80/ 11/ 13 1015.6
SHELL BEACH      1200   82 80   50/ 11/ 13 1015.0

OFFSHORE STATIONS

STATION/POSITION TIME  TEMP    WIND        PRES    WAVE
                       AIR SEA DIR/SP/G            HT/PER
                 (UTC) (F)     (DEG/KT/KT) (MB)    (FT/S)
64 S DAUPHIN ISL 1139   84 85   70/ 14/ 17 1014.9

$$




USA.gov is the U.S. government's official web portal to all federal, state and local government web resources and services.